Погода в Беркли

США     37°52′27″N   122°16′54″W
темп.,
°C
ветер,
м/с
пор.,
м/с
влажн.,
%
обл.,
%
осадки,
мм/ч
давл.,
гПа
погр.,
м
21 октября, чт
чт2123:00+15юв4691100 4.6 1018225
02:00+16юв3591100 0.3 1018185
05:00+16юв3591100 0.5 1018156
08:00+16ююв4591100 0.3 1019180
11:00+18ююв458192 0.4 1019348
14:00+21зюз46665 0.0 1017742
17:00+19юз47746 0.0 1016314
20:00+16юз22851 0.0 101727
22 октября, пт
пт2223:00+15ю34905 0.0 101687
02:00+15ююв4887100 0.0 1015213
05:00+15ююв61193100 2.4 1013475
08:00+13з3593100 7.1 1016278
11:00+15зюз3474100 7.3 1017536
14:00+16зюз4465100 0.0 1016684
17:00+15з4674100 0.0 1015427
20:00+13з3687100 0.0 1016247
23 октября, сб
сб2323:00+12з3492100 0.0 1016169
02:00+12зюз2292100 0.0 101556
05:00+12ююз1292100 0.0 101432
08:00+12ююз129270 0.0 101445
11:00+14юз237492 0.0 1015454
14:00+16з2360100 0.0 1013606
17:00+16юз346296 0.0 1011345
20:00+14ююз1272100 0.2 1012111
24 октября, вс
вс2423:00+14ююв3674100 0.4 1011237
02:00+14ююв51082100 1.3 1009479
05:00+14юв6889100 2.8 1006327
08:00+13юв91594100 15.3 1004434
11:00+16ю112093100 41.7 1001931
14:00+16ююз132394100 19.1 10001149
17:00+14юз51096100 35.2 1001512
20:00+13ююв4898100 15.3 1001308
25 октября, пн
пн2523:00+13ююз61294100 22.3 1001640
02:00+14юз101591100 2.5 1001816
05:00+13зюз81388100 4.6 1002858
08:00+13юз6118122 3.2 1005625
11:00+15юз710710 3.5 1007837
14:00+15юз79685 0.1 1009904
17:00+14юз69765 0.9 1010647
20:00+13юз498714 1.1 1013270